Tracking 19280 objects as of 14-Nov-2018
HD Live streaming from Space Station
objects crossing your sky now

SL-6 R/B(2)

Track SL-6 R/B(2) now!


NORAD ID: 22241
Int'l Code: 1992-081D
Perigee: 5,453.8 km
Apogee: 34,421.0 km
Inclination: 68.9 °
Period: 707.8 minutes
Semi major axis: 26308 km
RCS: 5.1164 m2 (large)
Launch date: November 25, 1992
Source: Commonwealth of Independent States (former USSR) (CIS)
Launch site: PLESETSK MISSILE AND SPACE COMPLEX (PKMTR)

Note: This is a ROCKET BODY
aabbcc
Your satellite tracking list
Your tracking list is empty




NASA's NSSDC Master Catalog

Two Line Element Set (TLE):
1 22241U 92081D   18316.99733037 -.00000514  00000-0  00000+0 0  9991
2 22241  68.9343 183.8618 5505303  99.4543 323.7512  2.03451517192931
Source of the keplerian elements: AFSPC